Location: Noordwijk
(52.2400°N, 4.4500°E)
Time: 02:22:46
(UTC+00:00)

VELOX 1 - Pass Details

Date: 02 December 2022
Orbit: 621 x 635 km, 98.4° (Epoch: 29 January)

Event Time Altitude Azimuth Distance (km) Brightness Sun altitude
Rises 04:19:07 0° 157° (SSE) 2,926 ? -28.2°
Reaches altitude 10° 04:21:19 10° 155° (SSE) 2,019 ? -27.8°
Enters shadow 04:24:44 52° 136° (SE) 789 ? -27.3°
